Hourly Weather Roundup
Issued by NWS Central Illinois

Home | Current Version | Previous Version | Text Only | Print | Product List | Glossary On
Versions: 1 2 3 4 5 6 7 8 9 10 11 12 13 14 15 16 17 18 19 20 21 22 23 24 25 26 27 28 29 30 31 32 33 34 35 36 37 38 39 40 41 42 43 44 45 46 47 48 49 50
000
NZUS43 KILX 202210
HWRILX

Area Weather Roundup
National Weather Service Lincoln IL
500 PM CDT SUN MAY 20 2018

NOTE:  "FAIR" indicates few or no clouds below 12,000 feet, with
       no sigificant weather and/or obstructions to visibility.


CITY           SKY/WX    TMP DP  RH WIND       PRES   REMARKS
Bloomington    FAIR      71  54  54 NE15      30.10R
Champaign      FAIR      75  63  66 E13       30.07S
Danville       FAIR      71  65  80 E6        30.06R HAZE
Decatur        FAIR      81  62  52 E9        30.05R HX  82
Effingham      FAIR      83  66  56 NE3       30.07S HX  85
Flora          FAIR      82  67  59 E6        30.05F HX  84
Galesburg      DRIZZLE   65  56  73 NE6       30.10R
Jacksonville   CLOUDY    78  62  57 SE6       30.05R HX  80
Lacon          FAIR      66  56  69 E10G17    30.07S
Lawrenceville  FAIR      84  66  54 N7        30.05F HX  86
Litchfield     SUNNY     78  66  66 SE8       30.05F HX  80
$$


CITY           SKY/WX    TMP DP  RH WIND       PRES   REMARKS
Lincoln        FAIR      82  64  53 E6        30.04S HX  83
Macomb         CLOUDY    74  64  70 NE9       30.08R
Mattoon        FAIR      81  66  60 E5        30.05S HX  83
Mt Carmel AP   FAIR      82  65  56 CALM      30.05F HX  84
Olney-Noble AP FAIR      80  68  67 E6        30.05F HX  82
Paris AP       FAIR      79  66  65 CALM      30.07S HX  81
Peoria         FAIR      71  55  56 E14       30.06S
Pontiac        FAIR      71  57  60 NE16      30.09R
Rantoul        FAIR      73  61  67 NE12      30.09S
Robinson       FAIR      80  67  63 CALM      30.07F HX  82
Springfield    FAIR      80  63  55 E8        30.05S HX  81
Taylorville    FAIR      78  67  68 E7        30.06R HX  80
$$

...REGIONAL REPORTS...


CITY           SKY/WX    TMP DP  RH WIND       PRES   REMARKS
Chicago O`Hare CLOUDY    49  42  77 N15       30.16F
Kankakee       FAIR      63  55  73 E16       30.09F
La Salle       FAIR      67  55  64 NE16G25   30.09F
Moline         CLOUDY    64  55  72 NE13      30.09R
Mount Sterling CLOUDY    76  63  64 CALM      30.06S
Mount Vernon   NOT AVBL
Pittsfield     CLOUDY    77  67  70 N3        30.07S
Quincy         CLOUDY    77  63  61 CALM      30.05F
Rockford       CLOUDY    57  51  80 NE14      30.16F
$$


CITY           SKY/WX    TMP DP  RH WIND       PRES   REMARKS
Burlington     CLOUDY    71  65  81 NE7       30.05F
Cedar Rapids   CLOUDY    58  55  90 E13       30.10S
Des Moines     CLOUDY    66  59  78 VRB7      30.07R
Kirksville     CLOUDY    76  62  62 CALM      30.06F
Ottumwa        CLOUDY    71  61  70 NE14      30.05F
St Louis       PTSUNNY   79  66  64 E7        30.04F HX  81
$$


CITY           SKY/WX    TMP DP  RH WIND       PRES   REMARKS
Terre Haute    FAIR      83  63  50 CALM      30.06F HX  84
Evansville     FAIR      83  68  60 W7        30.06S HX  86
Indianapolis   PTSUNNY   83  63  50 N10       30.07F HX  84
Lafayette      FAIR      70  63  78 NE12      30.07F
Madison        CLOUDY    57  51  80 E7        30.17F
Milwaukee      PTSUNNY   48  41  76 N10       30.21F
$$





USA.gov is the U.S. government's official web portal to all federal, state and local government web resources and services.